Theta_e
335 338 342 348 351 353 352 353 353 354 353 353 353 353 353 353 353 353 352 351 350 350 349 349 348 348 348 348 348 347 347 347 348 348 349 349 349 349 349 351 350 351 351 351 350 350 349 348 347 348 348 347 347 346 346 348 347 348 348 349 349 350 350 350 350 349 350 350 351 350 350 350 350 353 352 351 352 351 350 350 349 348 348 351 352
336 337 342 347 350 352 353 353 353 354 353 353 353 353 353 353 352 352 351 350 350 349 348 348 348 348 347 348 348 347 348 347 348 349 348 348 349 349 349 349 350 350 351 350 350 350 349 348 347 347 347 346 346 345 346 347 346 347 347 348 348 348 348 348 347 348 349 348 348 349 349 350 351 350 350 350 349 350 350 350 350 346 345 349 352
337 338 343 346 349 351 352 352 353 353 353 353 353 353 353 353 352 351 350 350 349 348 348 348 348 347 347 348 347 347 347 348 348 348 348 347 348 348 348 349 349 350 350 350 350 348 347 346 346 345 345 344 343 343 343 343 344 344 344 345 346 346 345 345 345 345 346 346 345 345 345 349 350 350 349 349 349 349 349 350 350 349 348 351 350
337 338 343 345 346 348 351 352 353 353 353 353 353 353 353 352 352 351 350 349 349 349 348 348 348 349 348 348 348 348 348 347 348 348 348 348 347 348 348 349 349 348 349 349 349 349 348 346 345 344 343 343 342 341 341 341 341 341 342 342 342 343 343 343 342 343 344 343 343 341 342 338 344 349 349 349 348 348 347 348 349 349 351 350 350
337 339 342 345 346 347 350 351 353 353 353 353 353 353 353 352 351 350 350 349 349 349 349 349 349 349 349 348 348 348 348 347 348 348 348 348 348 348 348 348 348 349 349 348 349 348 347 346 344 343 342 341 340 339 338 338 338 338 339 339 340 340 340 340 339 339 340 339 340 338 335 338 339 347 347 348 349 348 347 346 346 348 348 349 350
337 339 342 344 345 346 347 350 353 353 353 353 353 352 352 351 351 350 350 349 349 349 349 349 349 349 349 349 349 348 348 348 348 348 348 348 348 348 348 348 348 348 348 348 348 347 346 345 343 342 340 339 338 338 337 336 335 335 335 336 337 338 338 338 336 336 338 336 338 333 337 337 339 343 347 347 347 347 346 346 346 346 346 347 348
338 339 342 344 344 344 346 349 353 353 353 353 353 352 351 351 350 349 349 348 349 349 349 349 349 349 349 349 349 348 348 348 348 348 348 348 348 348 347 347 348 348 347 347 347 346 345 344 343 341 340 338 337 336 335 335 333 332 332 332 333 335 336 335 335 337 337 332 333 336 337 338 338 340 347 347 347 347 346 346 346 345 346 346 346
338 340 342 343 343 344 345 349 352 353 353 353 352 352 351 350 350 349 349 348 349 348 349 349 349 349 349 349 349 349 349 348 348 348 347 347 348 347 347 347 346 347 346 346 346 345 344 343 341 340 338 337 335 334 333 332 332 330 329 330 331 333 334 335 336 336 336 329 334 337 338 337 338 339 347 347 346 347 347 346 345 345 346 346 345
337 339 341 342 342 342 344 346 352 353 352 353 352 352 351 350 349 349 349 348 349 349 348 348 349 349 349 349 349 349 349 348 348 347 347 346 347 347 347 346 345 346 346 346 345 344 342 341 340 338 336 335 333 332 330 329 328 328 327 328 330 332 334 336 334 333 331 329 335 337 338 337 337 338 346 346 345 346 346 345 345 345 345 344 344
337 339 341 341 341 341 344 346 352 352 352 352 352 351 350 350 349 349 349 348 349 349 348 349 349 349 349 349 349 348 348 349 348 347 346 346 347 347 346 346 346 345 345 344 343 341 340 339 339 337 335 333 331 330 328 327 326 325 325 327 329 332 334 334 332 330 327 331 335 335 336 341 336 339 344 346 345 345 344 343 341 342 343 343 343
337 338 340 340 340 341 344 349 350 350 352 352 352 351 350 350 350 349 349 348 349 349 348 348 348 349 349 349 349 349 348 348 347 347 346 346 346 346 346 346 345 344 344 343 342 341 339 338 336 336 334 332 329 327 326 325 324 323 324 326 330 332 333 331 328 323 326 329 332 334 340 341 333 335 344 344 344 343 342 342 343 342 342 342 342
336 337 339 339 338 340 344 347 348 351 351 351 352 351 350 350 350 349 349 348 348 348 348 348 348 349 349 348 349 349 349 348 347 346 346 346 346 346 346 345 343 342 342 341 339 339 337 337 336 334 332 329 327 326 325 324 324 323 323 327 329 330 331 329 322 321 323 324 326 326 327 332 333 340 343 342 342 341 341 341 341 341 341 341 341
335 336 338 338 339 339 342 346 347 349 350 351 352 351 350 350 349 349 349 349 348 348 348 348 349 348 348 348 348 348 347 347 346 346 345 346 345 344 343 343 342 340 339 339 338 338 336 334 334 333 330 328 326 325 324 324 322 322 324 326 327 328 328 325 318 320 321 321 323 323 324 326 332 341 341 341 340 339 339 339 339 340 340 340 340
334 335 337 337 339 336 339 342 345 347 349 350 351 351 350 350 350 349 349 349 349 349 348 348 349 349 348 348 349 348 347 347 346 345 345 345 344 343 343 342 341 340 339 338 336 336 336 335 334 331 328 326 324 323 324 322 320 321 323 325 326 327 324 321 322 317 319 320 321 322 322 327 331 341 339 339 338 338 337 337 337 337 337 337 337
334 333 335 337 338 339 336 339 342 344 346 348 349 350 350 350 350 350 349 349 349 349 349 349 350 349 349 349 349 348 347 347 346 345 345 344 343 343 342 341 340 339 338 337 336 335 335 332 334 331 328 325 324 322 321 321 320 320 322 323 325 325 322 313 316 314 318 320 319 320 321 323 339 337 337 336 336 335 335 334 334 333 334 334 335
333 333 334 336 337 338 338 337 338 339 342 345 346 347 348 350 349 350 349 349 349 349 349 349 349 349 349 349 348 347 347 346 346 345 344 343 342 342 341 341 339 339 337 336 335 335 332 332 333 329 326 324 323 322 321 320 319 320 321 321 323 323 320 315 313 314 315 317 318 320 320 323 338 335 334 334 334 333 332 332 333 333 333 334 333
330 333 334 334 335 338 339 339 338 335 336 338 341 343 345 347 348 349 348 348 348 348 349 349 349 349 349 349 348 346 346 345 345 344 343 343 342 341 341 340 339 338 337 334 333 332 331 333 331 328 326 324 323 322 320 318 318 319 319 320 322 322 318 314 313 312 314 317 318 319 320 323 334 332 332 332 331 331 331 331 330 331 332 331 331
326 332 333 334 334 336 338 339 339 338 340 336 335 339 342 345 346 346 345 346 346 347 347 347 347 346 346 345 343 343 344 344 343 343 343 343 341 339 340 338 338 337 334 332 331 331 330 332 329 327 325 323 322 321 318 316 317 317 317 319 319 318 317 315 312 312 314 317 314 317 319 332 332 331 331 330 330 330 330 330 330 329 328 329 329
323 330 332 332 334 335 337 337 337 339 339 339 340 339 336 340 342 343 343 343 344 344 345 343 342 343 343 341 339 338 337 338 339 340 341 338 335 333 337 338 336 335 332 332 331 330 332 330 328 327 325 323 321 319 317 316 315 315 316 317 314 312 313 311 309 311 312 314 313 315 317 332 330 330 330 330 329 329 329 329 327 327 326 326 326
321 325 329 331 333 334 335 336 337 338 339 339 340 341 335 333 337 339 339 340 341 341 341 339 336 336 336 335 333 333 331 334 330 334 333 336 333 328 333 334 335 333 332 331 331 331 331 329 328 326 324 322 320 318 315 313 314 314 315 315 311 308 304 305 306 308 310 313 314 315 327 329 329 330 329 329 328 327 327 327 327 325 325 323 327
322 321 324 329 331 333 334 335 336 337 338 338 340 342 340 331 333 333 334 336 337 337 338 333 328 328 329 328 327 334 333 335 332 335 326 330 324 324 330 333 336 335 334 334 330 330 331 329 327 326 323 321 318 316 314 312 312 313 313 311 306 299 302 304 307 308 307 309 312 314 329 328 329 329 327 326 327 327 327 324 325 326 327 327 327
321 321 321 325 330 331 333 334 335 336 338 339 341 342 342 334 340 339 336 335 331 330 333 336 329 334 326 331 332 331 332 333 332 328 329 325 322 322 326 332 335 334 333 333 330 330 329 328 327 325 323 320 314 298 300 310 312 312 311 309 296 296 299 303 304 304 305 307 310 320 327 327 328 326 326 327 327 326 326 326 326 326 327 326 326
320 320 322 324 328 331 332 333 334 336 337 339 340 341 341 339 341 340 338 331 332 332 335 333 333 334 332 333 330 330 331 330 330 326 324 320 321 321 325 329 331 330 330 332 332 330 329 328 327 325 322 316 300 295 294 291 294 306 303 296 294 295 297 300 302 303 303 307 306 325 327 326 326 325 326 327 327 326 326 326 326 326 325 324 325
321 323 324 324 325 329 331 333 333 334 336 338 340 340 341 340 341 340 338 336 334 333 334 334 333 332 332 331 330 329 329 329 324 320 321 321 321 319 323 325 326 325 326 327 329 330 329 328 326 324 315 302 294 295 294 291 290 290 293 294 293 294 296 298 300 300 301 307 306 323 326 326 324 324 326 326 326 327 326 325 325 324 324 323 324
321 320 319 324 324 326 329 331 332 333 335 337 338 339 340 340 340 340 338 337 336 335 336 335 334 332 329 328 327 327 327 326 324 322 320 320 319 319 320 320 319 318 320 316 318 321 320 315 313 309 300 298 295 294 293 291 292 291 293 295 294 293 295 297 299 299 299 302 308 320 323 326 325 325 324 327 325 325 325 324 324 324 324 323 324
313 318 321 323 325 326 327 330 330 332 333 336 337 338 338 338 338 339 338 337 336 335 335 335 334 332 330 328 326 326 324 323 321 321 319 318 316 316 316 315 314 316 313 314 313 314 313 310 308 305 300 297 296 295 294 292 291 292 292 294 294 294 293 294 297 298 298 300 307 318 320 323 325 327 325 326 325 325 325 325 324 324 324 323 323
313 317 320 322 324 326 326 326 329 331 332 333 335 336 337 338 338 338 337 336 337 335 334 334 333 331 329 327 325 324 323 321 319 318 318 316 316 314 314 314 315 313 312 313 312 311 310 308 306 305 299 297 296 295 294 294 292 292 294 293 293 293 293 293 296 297 296 300 309 316 318 320 324 326 326 326 325 325 325 324 324 324 323 323 322
310 314 316 318 320 324 326 325 327 329 331 332 333 334 335 336 337 335 336 335 335 335 334 333 332 330 328 327 325 323 322 319 318 317 315 314 315 314 314 313 312 312 311 313 311 308 308 307 306 302 300 296 294 294 295 294 293 293 294 293 293 292 292 293 294 295 295 297 300 309 317 319 321 324 325 326 325 325 324 324 324 325 323 323 323
310 312 314 316 319 322 325 326 326 326 330 331 331 333 333 334 334 334 335 331 335 335 335 332 330 329 328 326 324 323 320 319 318 317 314 315 313 314 313 313 312 312 311 309 311 309 306 306 306 304 302 297 293 293 294 294 293 292 293 292 293 292 292 292 293 294 295 295 297 304 314 318 321 322 323 325 326 326 324 324 324 324 324 324 322
306 309 312 316 318 320 323 325 326 326 326 328 330 330 329 330 332 332 334 331 333 334 332 331 330 328 326 325 324 324 321 319 317 315 315 314 313 313 313 312 312 311 311 311 309 309 307 303 304 304 302 297 293 294 294 293 293 293 292 293 292 293 292 291 292 294 295 295 295 299 312 315 320 322 322 323 325 325 326 324 323 324 324 323 323
304 303 308 312 316 317 321 324 326 324 323 326 327 328 326 327 328 329 330 330 330 330 330 330 328 327 325 323 322 322 321 319 317 316 315 314 313 313 313 311 311 311 311 311 308 309 306 306 304 303 302 297 295 293 293 294 293 293 292 292 292 291 292 291 292 293 295 294 295 297 302 313 317 320 323 322 324 324 325 325 324 323 323 322 323
300 303 304 309 314 318 320 321 324 324 323 324 323 325 325 325 324 325 326 327 326 326 327 328 325 325 322 321 320 320 319 318 318 316 316 314 313 313 312 311 312 310 310 310 307 307 306 304 301 301 298 296 295 293 292 293 292 294 291 291 290 291 291 291 291 292 294 295 295 296 297 302 311 316 318 323 323 324 324 324 325 323 323 323 323
299 301 304 307 313 315 319 320 320 320 322 323 323 323 323 323 322 323 323 324 324 324 324 324 324 323 322 321 321 320 319 320 317 316 314 314 313 312 311 311 311 311 310 308 306 304 303 299 297 296 294 293 292 292 292 291 293 292 291 291 290 290 290 290 290 291 294 295 295 295 296 298 298 307 312 316 320 323 323 325 325 323 323 322 323
300 301 305 306 307 313 317 318 318 320 320 321 320 320 320 321 320 320 320 321 321 322 322 322 323 322 321 320 320 319 318 317 317 314 315 313 312 312 312 311 310 309 309 307 306 302 301 299 297 295 296 294 293 292 291 290 291 290 291 289 289 291 290 290 290 292 293 295 295 294 295 295 295 297 298 309 313 319 322 322 322 323 323 322 323
301 302 305 307 309 309 314 318 315 316 316 318 318 318 316 317 316 317 319 319 320 320 319 319 320 321 321 320 319 318 317 316 316 316 314 313 312 311 310 311 309 308 308 306 306 301 301 299 295 295 292 292 292 292 292 291 291 291 292 291 291 290 289 292 290 290 291 292 294 295 296 295 294 295 296 295 303 309 317 320 322 322 323 323 321
300 300 303 305 306 308 310 310 311 312 312 313 314 315 314 313 314 315 317 315 316 319 317 318 319 318 319 319 318 317 317 316 315 315 315 313 312 311 311 309 308 307 307 304 304 301 298 298 295 295 292 291 290 290 290 290 290 291 290 290 290 291 289 290 291 292 292 291 294 297 298 296 296 296 298 295 296 302 311 315 318 319 320 321 322
299 300 300 302 303 304 306 309 310 310 310 311 310 310 312 312 313 314 314 314 315 315 314 315 316 317 316 317 316 316 316 315 314 314 315 313 311 311 309 308 307 307 305 303 303 301 298 298 293 293 293 292 290 288 288 289 290 290 289 288 289 290 290 290 291 292 291 290 291 294 296 296 296 301 296 295 294 295 305 311 313 314 315 317 319
299 299 300 300 301 302 303 304 308 311 311 311 311 311 311 312 312 312 313 314 313 313 313 314 314 314 314 315 315 315 315 314 313 313 314 313 312 311 308 307 305 305 304 301 302 298 297 297 295 292 292 292 290 289 289 288 289 289 288 287 288 288 288 289 290 293 290 291 290 291 294 295 296 295 294 293 294 294 297 305 310 310 308 312 317
297 298 299 299 300 300 301 301 302 307 310 310 310 311 312 312 312 312 312 312 312 313 313 313 312 314 313 312 313 314 313 312 311 311 313 311 310 309 308 305 304 304 302 300 298 295 295 295 296 293 290 290 290 290 289 289 289 288 288 287 287 287 287 287 289 289 289 291 291 292 290 291 293 292 293 292 292 292 294 294 294 293 295 308 314
296 297 297 298 298 299 299 300 300 301 305 308 309 310 311 310 311 310 311 309 310 310 311 310 311 311 311 312 313 313 313 312 311 310 310 309 309 308 308 304 303 303 301 299 296 294 295 294 293 293 291 289 289 287 287 288 286 287 287 287 286 286 287 288 288 289 290 289 290 290 290 288 288 289 291 292 292 292 292 292 293 292 292 299 308
294 295 295 296 296 297 297 297 298 300 301 303 304 304 306 306 308 308 305 306 307 308 309 309 310 308 309 309 311 311 311 311 310 310 310 308 309 306 306 304 303 303 302 302 300 297 296 296 294 292 291 289 288 286 287 288 287 287 286 285 286 285 288 289 287 288 289 289 288 290 290 290 288 288 289 290 290 290 291 291 291 290 291 290 295
292 293 294 294 295 296 296 297 298 298 298 299 301 301 301 301 304 303 303 303 306 307 307 308 308 308 307 307 307 307 307 307 305 306 306 306 304 304 304 305 303 302 302 301 299 297 295 293 292 290 289 291 289 287 289 289 286 285 284 284 284 286 287 287 287 288 288 288 289 290 290 290 289 288 288 288 289 289 290 290 289 290 290 290 291
292 292 293 293 294 294 295 295 296 297 297 297 298 299 299 300 301 300 301 302 302 303 304 304 305 306 305 305 306 306 307 306 305 305 306 305 305 304 303 303 302 301 300 299 298 296 294 293 291 293 289 287 287 287 288 290 286 283 282 283 282 283 285 286 287 288 288 288 288 289 290 289 290 289 288 287 288 288 288 288 288 289 289 289 289
291 291 291 292 293 293 293 294 295 295 296 297 297 297 298 298 298 298 299 299 297 298 299 300 302 304 304 303 304 304 305 306 305 305 305 305 304 304 301 301 301 300 301 301 298 298 294 293 292 292 291 289 287 288 289 289 285 286 283 285 280 281 280 283 285 285 287 288 288 289 288 290 289 288 287 288 287 287 288 288 287 288 289 288 288
290 290 290 291 292 291 292 293 293 294 294 295 296 297 298 298 298 299 298 298 298 297 297 297 297 297 299 300 299 298 300 301 300 300 300 301 301 301 300 299 300 299 299 299 299 298 297 296 294 293 292 293 290 286 287 289 287 288 286 280 281 282 280 279 280 282 282 285 287 288 288 289 288 288 288 288 287 287 287 287 287 287 288 287 287
289 290 290 291 291 291 291 292 292 293 293 293 294 296 295 295 295 295 294 294 294 294 293 293 294 296 297 296 298 297 298 299 297 297 297 297 298 297 297 297 297 298 298 299 299 298 296 295 294 294 292 292 294 289 287 287 289 288 286 284 283 281 281 279 283 281 280 284 284 285 287 288 287 287 287 287 287 287 287 287 287 287 287 287 287
288 289 289 290 290 291 291 291 291 291 292 292 293 294 293 293 293 293 293 292 291 292 292 293 293 294 294 294 296 297 296 298 297 296 296 296 295 294 294 294 294 296 297 297 297 297 297 296 295 293 293 293 291 291 289 289 287 288 288 287 285 284 281 283 282 282 281 281 282 283 285 285 286 286 287 287 287 286 287 287 287 287 287 287 287
287 288 288 289 288 289 289 290 290 290 290 291 291 292 292 292 291 291 291 291 291 290 292 292 293 293 293 293 293 293 294 295 296 296 295 296 295 296 293 292 293 292 293 295 296 297 297 296 295 294 294 293 292 291 291 289 288 288 289 289 288 285 283 284 281 283 282 281 281 282 282 284 284 285 287 287 287 287 287 286 287 286 287 287 287
287 287 287 287 288 288 288 288 288 289 289 290 290 290 291 290 290 290 290 290 290 290 291 292 291 292 291 292 292 292 292 293 293 293 293 293 294 294 293 293 292 292 290 291 293 294 294 294 294 293 293 293 292 292 291 291 289 289 287 286 287 287 286 285 283 282 283 281 283 281 282 282 283 284 286 287 287 287 287 287 287 287 287 287 287
286 287 286 287 287 287 287 287 287 288 288 288 289 289 289 290 289 289 288 288 289 289 290 289 290 290 290 290 290 290 290 291 291 291 291 291 292 293 293 293 292 291 290 289 288 290 291 292 293 294 294 293 293 292 291 291 291 290 290 290 287 284 284 285 283 284 284 283 285 283 280 282 282 284 286 286 287 287 286 286 286 286 286 287 287
285 286 286 286 286 286 286 286 286 287 287 287 287 287 288 288 288 288 287 287 287 288 287 287 288 288 288 288 288 289 289 289 290 290 290 290 290 291 291 292 291 291 291 290 290 290 290 289 290 290 291 292 292 292 291 291 291 289 289 289 288 287 287 285 284 284 285 284 282 283 282 281 283 284 282 285 287 287 286 285 286 286 287 287 287
Wind_Speed
7 11 10 13 16 16 18 19 18 17 16 15 15 15 14 15 14 14 14 13 12 12 12 11 10 10 10 10 9 10 10 10 9 10 10 9 9 8 8 8 8 9 10 11 11 12 13 12 12 12 12 12 12 12 12 11 11 11 10 10 10 11 12 12 12 11 11 12 12 12 10 10 11 12 13 13 13 12 10 9 9 6 5 7 11
12 10 11 11 16 16 18 19 19 18 17 16 15 15 15 14 13 14 13 13 12 12 12 11 11 10 10 10 10 10 10 10 9 9 9 8 8 7 8 8 9 9 11 11 12 11 12 11 12 11 12 12 11 11 10 10 9 9 9 9 10 10 11 11 10 9 9 9 10 9 8 11 11 12 12 13 13 12 9 10 11 5 3 9 11
9 9 10 13 16 16 17 18 18 18 18 17 16 15 15 14 13 13 12 13 12 12 12 12 12 11 11 10 10 10 10 10 9 9 8 8 7 7 7 8 8 9 11 12 12 13 12 12 11 11 11 12 11 10 10 9 9 8 8 8 9 9 10 9 9 7 7 7 8 8 7 8 11 11 12 12 12 12 10 10 10 10 7 12 10
11 9 9 12 16 16 16 17 17 17 17 15 15 14 14 14 14 14 13 12 12 12 12 13 12 12 12 12 11 10 10 10 9 9 8 7 7 6 6 7 8 9 10 12 12 13 12 12 11 11 10 11 11 10 9 8 8 8 7 7 7 8 9 8 7 7 6 6 6 5 3 3 5 11 12 12 12 11 11 11 10 11 13 11 12
10 8 9 9 11 14 17 17 17 16 17 16 15 15 15 15 14 14 14 13 12 13 14 13 13 13 12 12 11 11 10 10 10 9 8 8 7 6 6 7 9 10 10 11 12 13 13 12 11 10 10 11 10 9 9 8 7 7 7 6 6 7 7 7 7 6 5 5 3 1 2 2 2 9 10 11 12 11 10 11 12 12 12 13 12
9 8 8 9 9 10 15 16 18 18 17 16 15 15 15 15 14 14 13 13 13 14 14 14 13 13 13 12 12 11 10 10 10 9 8 7 7 7 7 8 10 10 10 11 12 13 13 11 11 10 10 10 10 9 8 7 7 6 6 6 6 7 7 6 6 6 5 4 3 2 2 2 2 3 11 11 11 11 10 11 11 11 11 12 12
11 8 8 9 8 9 13 15 17 18 19 17 16 16 15 14 15 14 14 14 14 15 14 13 13 12 12 12 11 11 10 10 10 10 9 8 7 7 7 9 10 10 10 10 10 11 11 11 10 10 9 9 9 8 7 6 6 6 5 6 6 6 7 7 7 6 4 4 5 4 3 2 1 1 9 9 11 12 11 11 11 11 11 11 11
7 8 9 8 8 10 13 14 14 17 18 17 16 16 16 15 14 15 14 14 14 15 14 14 13 13 12 11 11 11 11 11 11 10 10 10 9 8 9 9 9 10 10 10 11 11 10 9 10 9 9 9 8 7 6 5 5 5 5 6 6 7 7 7 7 6 5 3 4 4 4 2 2 2 9 10 10 11 12 11 10 11 11 11 8
8 8 9 9 8 13 13 14 14 15 17 16 16 16 17 16 16 15 15 15 15 14 14 13 13 12 13 12 12 11 11 11 11 11 11 10 10 10 10 10 9 10 10 10 10 9 8 7 8 8 8 8 7 6 5 5 5 5 5 5 6 7 7 8 7 6 3 3 4 5 4 3 3 3 8 11 11 11 11 9 10 11 11 10 9
7 7 8 8 7 13 13 14 15 15 18 15 13 15 17 17 16 16 16 16 15 15 14 13 13 12 12 12 12 12 12 12 11 11 11 11 10 11 11 11 11 11 11 9 8 8 7 6 7 7 7 7 6 6 5 5 5 5 5 5 6 7 7 8 7 5 3 3 4 5 3 4 3 4 8 11 11 11 10 8 8 7 7 9 9
8 8 8 8 8 13 13 14 14 14 16 15 13 15 15 16 15 16 17 16 16 15 14 14 14 13 13 13 12 11 11 12 13 12 12 11 11 11 12 11 11 10 9 9 9 7 7 5 5 5 5 6 5 5 5 5 4 5 5 5 7 7 8 8 6 4 4 4 4 3 3 5 3 3 9 11 11 10 7 5 6 7 8 9 9
8 7 7 7 10 14 14 14 14 15 15 15 15 16 16 15 15 15 16 16 16 15 15 14 13 13 13 13 12 13 13 13 13 12 12 12 12 12 11 11 9 8 8 8 6 6 5 6 5 4 5 5 5 5 5 5 5 5 5 6 7 8 8 8 5 5 4 4 4 3 3 3 3 5 10 9 9 9 8 7 7 7 7 7 8
8 8 7 7 8 13 15 15 14 15 15 16 16 18 16 16 15 15 14 14 15 15 15 14 12 13 13 13 13 12 12 13 14 13 12 12 12 11 10 10 9 7 6 4 5 6 4 1 5 6 5 5 5 4 4 5 5 5 6 7 8 8 8 9 4 5 4 4 4 3 3 1 1 8 8 8 8 7 6 6 6 7 7 7 6
8 8 8 8 8 13 15 15 15 15 15 15 16 16 16 16 16 15 15 13 12 13 14 14 13 13 14 12 13 13 13 14 15 13 13 13 12 11 11 10 9 8 7 7 4 3 5 7 8 6 5 5 4 3 4 4 5 6 6 8 8 8 8 6 5 4 4 4 3 3 3 2 2 7 8 7 6 5 5 5 5 5 5 5 5
10 10 9 8 8 10 15 15 14 15 14 15 15 15 16 16 16 15 15 13 12 11 12 12 10 11 11 11 13 14 14 15 16 15 13 13 12 12 11 10 9 8 8 6 5 5 5 4 10 7 5 5 4 4 4 4 5 6 7 8 8 8 8 5 4 4 4 4 3 3 4 3 4 6 5 5 4 4 4 4 3 3 2 3 3
9 10 8 8 8 9 10 13 15 15 14 15 15 15 15 15 16 15 15 14 12 12 11 11 11 10 10 10 13 14 14 15 14 14 13 13 13 11 10 9 8 8 7 6 5 6 3 5 9 9 5 4 3 4 4 4 5 6 7 8 7 8 7 6 5 4 4 4 3 4 4 3 2 5 4 4 4 3 3 3 3 3 3 4 3
6 8 9 9 9 9 10 10 11 15 13 14 14 14 14 14 15 15 14 14 13 12 12 11 10 10 9 10 11 12 12 12 12 12 12 13 12 10 8 8 7 7 9 7 6 5 3 9 10 8 6 4 3 4 4 5 5 6 7 7 7 8 7 6 5 4 4 3 3 4 4 3 4 4 4 4 4 4 3 3 3 3 3 3 3
4 7 9 9 8 9 10 9 10 10 9 11 13 14 14 14 14 14 14 14 14 13 12 10 9 10 10 9 11 11 12 12 11 11 11 10 10 8 7 7 8 8 5 4 4 4 5 11 9 7 6 4 3 3 4 5 6 7 7 7 7 8 7 7 5 4 4 4 4 3 4 5 5 4 4 4 4 3 4 3 3 2 2 1 3
3 4 5 8 8 8 9 8 9 9 10 8 8 11 15 14 14 14 14 13 14 14 13 12 10 10 10 10 11 12 11 12 12 11 10 9 8 8 7 7 8 6 5 6 6 6 11 9 8 7 5 4 3 3 4 5 6 7 7 7 7 8 8 6 4 4 3 4 2 3 3 3 5 5 4 4 4 4 4 3 2 2 2 3 1
4 4 4 6 7 8 8 8 9 10 9 8 9 9 12 14 14 14 14 13 13 13 13 12 11 11 11 11 11 11 11 10 12 10 10 9 9 7 8 7 8 8 8 8 7 9 9 9 7 6 6 5 4 4 4 4 6 6 6 6 7 7 5 4 4 4 3 3 2 3 4 2 5 5 5 4 4 4 3 4 3 3 3 4 4
3 4 4 5 5 8 9 8 9 10 10 10 9 10 11 13 12 14 14 13 12 13 12 12 12 11 11 11 11 9 6 7 9 7 10 7 9 10 9 9 8 8 8 7 8 9 11 7 7 7 6 6 5 4 3 4 5 5 6 6 6 6 3 4 4 3 3 2 2 2 3 2 5 6 5 5 5 5 5 4 4 4 5 5 5
5 6 4 4 7 7 9 10 8 10 10 9 7 8 8 11 10 9 9 10 10 11 10 8 9 7 11 9 7 7 6 6 6 6 6 8 9 11 10 9 9 8 8 8 9 9 10 9 8 7 7 7 5 2 2 3 4 5 5 5 5 3 3 3 3 3 2 2 2 3 3 4 5 5 5 6 5 6 6 5 5 6 5 5 5
6 6 6 7 7 7 8 9 10 10 10 9 7 7 9 8 9 9 9 10 8 9 7 8 6 7 7 7 6 6 6 6 6 6 6 9 8 10 10 10 9 9 10 9 8 10 9 9 8 8 7 6 3 2 1 0 2 4 4 3 3 3 3 3 3 3 2 1 2 4 3 3 4 5 6 6 6 6 6 6 6 6 5 4 5
9 8 9 6 7 8 10 10 10 10 10 8 7 7 7 7 8 8 7 7 7 7 7 7 6 6 7 6 6 6 6 6 7 10 8 7 7 10 11 10 10 10 10 7 8 8 9 9 9 8 6 3 2 1 0 1 2 2 2 2 3 3 4 3 3 3 2 1 2 4 4 2 4 4 6 7 7 6 7 7 6 4 4 3 5
9 5 4 8 9 9 8 9 8 8 10 9 9 8 8 7 8 7 7 7 7 7 6 6 6 6 6 5 5 5 5 5 5 5 5 5 5 5 4 4 5 4 7 5 5 5 7 4 4 6 4 3 2 1 0 1 1 1 1 1 1 2 3 3 3 3 2 1 0 3 4 3 2 5 5 6 7 6 6 6 6 6 5 5 5
3 5 11 9 10 9 9 9 8 9 10 9 9 8 8 8 8 8 7 7 7 7 6 6 6 7 6 5 5 5 5 5 5 5 5 5 5 5 5 5 4 5 4 6 4 6 6 5 5 5 4 2 2 1 1 1 2 0 0 0 0 1 2 3 3 3 1 1 0 2 3 4 3 2 5 6 7 8 7 7 7 7 7 6 5
8 10 9 8 8 8 9 7 9 9 10 9 7 7 7 7 7 7 8 7 7 7 6 7 7 7 7 6 6 5 5 5 5 5 6 5 6 6 6 5 6 5 4 6 6 5 6 6 6 5 4 3 1 1 2 1 1 2 1 1 1 1 1 2 2 2 1 0 0 2 3 3 4 4 5 7 7 8 7 7 7 6 7 7 4
4 10 8 7 7 11 8 7 9 9 9 9 9 8 7 8 8 7 8 7 7 8 7 7 6 7 7 6 6 6 6 5 5 5 5 5 5 5 5 5 5 5 4 6 6 4 5 5 5 4 5 3 3 3 3 2 2 2 3 2 2 1 1 2 2 1 1 1 0 1 1 2 4 5 4 7 8 8 6 5 7 8 6 6 7
8 10 9 6 10 9 7 9 8 9 8 8 8 8 7 7 7 7 8 7 7 7 7 6 6 6 7 7 7 7 6 6 7 6 5 6 5 5 5 6 5 5 5 4 6 6 5 5 6 6 5 4 3 3 3 4 3 3 4 4 3 2 2 1 2 2 1 1 1 1 0 1 2 3 4 5 8 8 8 7 8 6 8 8 6
5 7 6 7 5 4 8 11 10 9 8 7 7 7 7 8 7 7 7 6 7 6 5 5 6 6 6 7 8 7 7 7 6 5 7 6 5 5 5 5 6 5 6 6 5 6 6 5 5 5 5 4 3 3 3 4 4 4 4 4 4 4 3 3 3 3 2 1 1 0 1 1 3 2 2 3 6 8 9 9 8 8 8 6 8
5 5 2 3 4 2 7 8 8 6 6 8 7 7 6 7 7 6 6 6 6 5 5 5 5 5 6 6 6 7 7 7 7 7 6 6 6 6 6 5 6 6 6 6 5 6 5 6 6 6 6 5 5 4 4 5 5 4 4 4 5 3 3 2 2 2 2 2 1 0 0 3 3 4 4 1 3 5 9 9 9 6 7 7 7
6 6 4 3 3 6 6 5 6 6 6 7 6 7 7 7 6 5 6 6 5 5 5 5 6 6 5 5 5 5 5 6 7 7 7 7 6 6 6 6 6 5 6 6 6 5 6 5 5 5 5 4 5 4 4 5 5 5 4 4 3 3 4 3 3 3 3 2 2 1 0 1 4 4 6 6 3 4 4 4 8 9 9 8 9
6 4 6 2 2 4 6 5 4 4 6 7 7 5 5 5 6 6 6 5 6 6 6 6 6 6 6 6 6 6 6 6 6 7 7 7 7 7 6 6 6 6 5 5 6 5 4 4 4 3 4 4 4 4 3 4 5 5 4 4 4 4 4 3 3 3 4 4 3 2 1 1 1 4 5 5 7 5 4 6 7 9 9 8 9
7 6 8 9 6 1 1 2 4 5 5 3 3 4 4 5 4 4 6 6 5 6 6 6 6 6 6 7 7 6 6 6 6 6 6 6 6 7 7 6 5 5 5 5 6 5 6 5 5 5 5 5 6 5 5 5 4 3 4 4 4 5 4 4 4 5 4 4 4 3 3 2 2 1 1 4 5 6 5 4 4 5 3 2 5
9 11 11 7 9 7 3 1 0 2 3 3 4 3 2 3 3 4 5 5 5 6 6 6 6 6 6 7 7 7 7 7 6 7 7 6 6 6 6 6 6 5 6 5 6 5 5 6 5 6 4 5 5 5 6 6 5 6 6 5 6 5 4 6 4 4 4 4 4 4 4 4 3 3 2 1 2 3 4 4 4 3 3 3 3
12 10 10 10 12 10 8 5 4 3 3 2 1 1 3 3 3 4 4 4 4 5 5 6 6 6 6 6 7 7 7 7 7 7 7 7 7 7 7 6 6 6 6 5 5 6 5 4 4 5 5 5 4 5 4 5 5 6 5 5 6 5 7 6 6 5 5 5 5 5 5 5 4 4 4 3 2 1 2 2 2 2 3 4 4
11 13 12 11 13 11 11 10 8 5 5 5 4 3 3 3 3 3 3 3 3 4 3 3 4 5 5 6 6 7 7 7 7 7 7 7 7 7 6 6 6 6 6 6 6 6 6 5 4 4 5 6 5 5 4 4 5 5 4 5 5 4 5 6 5 5 3 4 5 5 5 5 4 5 4 4 3 3 3 2 1 1 1 1 2
11 12 11 11 9 9 9 9 8 8 7 7 6 5 5 5 5 5 4 4 3 2 3 2 2 2 3 5 5 6 6 6 6 7 7 7 7 7 6 6 6 6 6 6 7 5 5 6 7 5 6 5 6 6 6 4 3 4 4 4 4 3 4 4 4 3 4 5 5 4 6 6 5 4 4 3 3 3 3 3 3 2 1 1 1
11 12 13 12 11 11 10 12 11 9 8 7 6 7 6 6 6 6 7 6 5 5 4 4 3 2 2 3 3 3 3 4 4 5 6 6 6 6 6 6 6 6 6 6 4 4 4 5 7 7 4 5 5 6 5 4 3 3 3 4 3 4 3 3 3 4 5 5 5 4 3 6 4 4 4 4 3 3 3 2 2 2 2 3 3
12 12 14 15 14 13 10 12 11 9 8 8 7 7 7 7 7 6 7 7 6 6 6 5 4 4 2 2 3 4 4 5 4 3 3 4 4 5 6 5 6 6 7 6 6 6 9 7 7 7 6 3 1 3 3 4 1 0 2 3 3 3 4 4 4 5 5 5 5 3 5 4 4 4 5 5 5 4 4 4 3 3 3 4 4
14 14 14 14 13 11 12 13 9 10 10 9 8 7 6 5 6 6 4 5 5 5 7 6 6 5 5 5 5 3 2 2 2 3 5 5 4 3 3 3 4 6 6 8 9 10 8 8 7 4 7 5 4 3 4 4 4 1 2 3 5 3 3 2 4 5 6 7 5 7 6 5 5 5 6 5 5 5 4 4 4 4 4 3 4
14 14 14 12 12 13 13 11 11 11 10 8 6 7 5 2 4 3 4 5 6 6 6 6 6 6 6 5 5 4 4 4 4 4 2 1 1 2 3 4 5 5 5 3 3 3 4 4 4 4 3 7 6 6 5 7 1 5 3 3 4 6 5 4 5 7 6 5 5 6 5 6 7 6 4 6 6 6 6 6 5 5 5 5 4
12 13 12 14 14 13 11 10 11 10 10 10 8 6 5 6 5 4 4 4 4 4 5 4 5 6 6 6 6 6 6 6 5 5 3 2 1 0 1 1 1 1 2 3 3 4 5 6 6 7 5 1 3 2 6 8 6 2 2 1 4 2 4 5 6 7 5 5 5 6 6 6 8 6 6 5 6 5 5 5 6 6 6 6 6
12 13 13 12 11 12 11 12 11 11 11 10 9 7 5 4 6 6 7 7 3 4 5 7 7 7 7 6 7 6 6 6 6 6 5 5 3 2 2 0 1 1 2 3 3 5 4 3 4 6 4 4 3 5 6 8 5 7 3 7 3 1 7 7 9 6 7 9 8 8 5 7 6 5 4 7 7 6 6 5 6 6 6 6 6
12 12 11 11 9 11 11 11 11 11 10 12 11 9 11 11 9 9 9 9 9 11 9 9 9 5 5 7 5 4 5 6 6 6 6 5 5 4 3 1 0 0 1 2 3 5 5 5 6 6 6 7 7 4 4 6 7 6 6 2 1 2 6 5 2 6 1 5 9 8 7 7 7 7 6 8 5 6 6 6 6 6 7 6 6
12 10 9 10 11 11 12 12 11 12 12 12 11 10 10 10 11 11 10 8 9 10 10 8 9 8 8 6 6 6 6 5 5 5 5 5 5 5 4 3 2 1 1 3 3 2 3 4 5 6 7 7 7 6 5 4 8 8 5 4 3 4 1 2 1 7 2 5 4 4 7 6 4 6 7 7 8 7 5 7 6 8 7 6 6
10 8 9 11 12 12 11 12 11 11 11 11 13 10 11 10 10 9 8 8 7 6 5 7 8 8 7 10 9 10 9 8 6 6 5 5 5 4 4 3 3 2 2 2 4 4 4 4 3 4 6 6 4 6 7 6 2 6 7 8 4 2 2 0 4 2 7 1 3 5 6 5 5 5 7 8 7 6 7 7 8 7 7 7 7
7 8 10 10 12 12 12 12 11 11 11 11 13 11 10 10 10 9 9 9 7 6 8 7 8 9 11 11 10 10 11 10 10 10 10 8 7 6 4 4 4 3 2 2 3 4 3 3 2 4 4 3 4 7 7 6 7 5 7 11 9 5 3 2 3 2 3 6 6 1 3 5 4 7 8 8 8 9 9 8 8 7 7 7 7
9 10 9 9 9 10 10 11 13 12 11 12 12 12 11 10 10 9 10 7 7 7 5 8 9 9 12 11 11 10 10 11 11 11 11 11 10 8 6 5 5 4 2 3 3 4 4 4 4 3 4 5 5 6 6 6 6 7 4 6 6 10 7 6 2 2 4 5 9 5 5 1 3 7 8 9 8 8 9 8 8 8 7 8 8
7 7 7 8 8 9 12 14 14 11 10 12 12 13 12 10 12 11 11 10 9 8 9 10 9 8 10 10 9 10 9 10 10 10 11 11 10 10 8 7 5 4 4 3 4 4 4 4 4 4 4 5 4 5 7 6 6 6 7 5 5 4 5 6 5 5 5 6 13 9 4 6 7 7 9 9 12 9 7 7 7 8 8 8 8
7 8 9 9 9 10 11 14 11 10 11 12 12 12 11 11 11 11 11 11 10 10 11 11 10 11 10 9 9 8 8 8 9 9 10 10 10 9 9 8 7 6 6 5 4 4 5 4 5 4 4 5 5 5 6 6 6 6 6 6 8 7 9 7 7 7 8 8 6 8 6 7 9 9 5 6 8 8 8 7 8 9 10 9 8
Wind_Direction
217 176 177 185 185 175 173 172 169 168 168 165 163 160 158 157 154 153 151 150 148 148 147 148 146 142 141 139 138 136 132 125 127 123 120 120 119 119 115 111 121 120 114 111 107 105 103 98 95 91 88 82 81 78 78 75 76 75 75 72 61 64 70 68 65 65 62 63 68 72 75 79 79 80 82 83 79 73 66 64 66 64 61 64 73
179 180 176 182 183 175 175 173 171 169 168 167 165 163 161 160 157 156 154 154 153 152 152 150 149 147 146 143 143 139 135 133 129 127 123 122 117 117 117 114 117 125 119 115 108 105 99 96 93 89 87 86 83 82 80 70 62 61 60 58 59 59 60 60 56 56 60 55 53 48 58 80 81 83 86 86 84 79 72 64 60 54 51 71 68
144 170 175 181 181 178 175 174 173 171 171 170 167 165 163 160 161 160 157 158 157 156 154 153 151 150 148 146 145 141 139 137 134 131 130 130 124 118 112 117 122 128 119 115 111 103 98 95 91 87 85 85 81 77 73 71 64 58 59 53 55 56 55 52 50 48 50 44 48 41 29 67 87 88 88 85 83 74 67 74 71 60 64 68 68
150 172 174 180 180 178 175 173 174 173 172 173 169 166 164 163 163 162 160 162 159 156 156 155 155 156 151 149 147 145 143 141 139 137 135 130 124 106 113 117 123 119 118 115 112 106 99 96 93 89 86 84 81 75 71 68 67 63 57 54 52 53 52 46 36 26 20 8 20 38 40 16 77 94 93 89 82 75 69 59 66 71 71 67 65
152 160 175 177 180 181 179 171 174 172 174 175 170 167 165 165 163 163 165 163 162 161 161 160 159 156 153 150 150 149 148 147 145 142 139 137 125 125 119 125 122 123 119 120 113 105 101 97 93 88 82 77 73 71 67 62 60 59 55 51 47 53 54 44 33 21 0 336 318 49 41 31 45 98 97 96 90 85 77 76 69 60 57 65 68
154 158 169 175 179 185 184 174 172 172 174 175 171 168 166 166 164 168 168 167 166 166 164 163 161 159 158 155 154 154 151 151 149 145 140 139 134 134 137 133 129 126 123 121 112 104 98 95 90 86 80 75 71 65 61 55 52 51 47 43 38 42 48 40 31 9 344 358 105 119 86 28 31 87 105 103 97 91 90 85 74 65 60 56 55
154 159 164 174 179 185 186 179 174 173 173 173 173 171 167 170 173 171 170 173 171 169 167 166 166 163 162 161 159 159 157 157 154 148 144 142 140 136 138 138 134 129 126 120 115 106 99 92 88 85 80 77 73 67 58 51 45 39 38 36 33 35 41 34 21 5 2 49 103 114 97 77 38 71 106 104 102 98 93 87 83 75 66 58 51
148 160 168 170 176 185 183 182 179 177 175 173 173 170 169 170 175 174 173 174 175 173 171 170 168 168 168 167 164 164 164 163 157 152 152 148 144 139 136 128 131 123 122 118 111 102 99 96 94 85 80 77 73 69 62 56 46 38 34 29 29 31 33 28 29 19 33 83 106 105 96 83 79 74 106 97 94 96 91 88 85 82 76 63 44
159 163 165 170 175 181 183 182 178 182 180 176 173 172 171 171 173 175 175 176 176 177 176 174 173 173 175 170 169 171 169 165 161 157 155 152 147 143 135 135 133 126 124 124 113 105 103 105 97 89 82 77 74 67 62 54 49 43 36 34 34 32 27 38 43 39 52 87 108 104 105 103 92 78 105 100 92 86 80 71 77 80 80 72 61
160 162 168 167 175 180 183 182 178 183 181 178 176 175 175 173 174 175 176 178 178 179 180 179 177 180 178 177 175 177 174 163 165 162 156 152 149 144 141 140 141 138 133 125 116 111 117 115 102 92 84 79 70 67 60 54 47 44 42 44 44 37 41 51 52 48 65 83 95 107 122 124 115 129 108 98 94 87 87 92 89 86 80 75 74
162 166 167 169 174 179 183 183 180 183 180 177 177 178 180 176 178 177 179 180 180 181 183 184 181 183 182 182 178 179 171 169 170 160 157 155 151 148 146 147 145 143 141 135 124 123 120 110 106 91 80 76 65 62 56 51 51 48 51 51 47 43 50 56 56 52 63 72 75 79 106 106 103 90 106 100 96 92 86 92 95 89 86 82 75
166 166 169 172 175 178 184 184 182 185 181 177 178 181 182 180 182 182 185 183 183 185 187 189 186 188 187 184 182 180 170 175 167 158 160 155 154 152 150 150 149 150 152 143 143 140 124 102 94 89 80 70 67 57 57 57 57 55 58 51 45 48 47 57 60 60 64 64 63 47 45 75 109 117 111 111 104 101 95 88 86 83 82 80 82
169 168 170 171 177 181 184 185 184 187 183 178 180 182 182 181 185 186 189 191 188 189 189 190 189 190 190 188 183 180 174 175 165 164 162 157 157 154 148 143 148 136 123 126 162 157 140 129 96 104 84 70 64 57 55 58 57 58 56 51 45 47 48 54 54 58 56 56 52 39 36 26 116 121 117 112 109 105 96 87 86 80 77 76 76
168 173 172 173 178 184 185 186 186 188 186 179 182 184 184 181 184 188 189 193 194 193 194 192 192 190 191 188 184 175 175 178 168 165 162 161 160 161 153 154 152 150 154 155 152 196 188 163 147 122 102 87 71 63 66 62 65 64 55 46 44 45 52 54 57 60 58 50 44 36 31 8 115 118 116 112 102 88 89 88 79 83 72 64 64
167 175 174 174 177 183 187 187 186 189 186 181 183 185 186 184 185 189 190 189 191 196 197 198 194 193 191 186 187 181 177 181 172 169 161 157 167 171 165 162 163 163 156 163 167 159 208 101 105 117 107 91 91 89 83 77 75 73 61 52 47 50 59 66 59 60 58 49 33 33 18 350 143 128 118 110 106 100 82 77 80 74 82 83 67
171 170 169 179 179 180 186 191 188 189 188 184 185 188 188 186 187 190 189 188 189 196 200 200 195 194 194 190 189 182 179 183 179 173 172 161 172 175 171 170 167 170 177 162 161 220 148 143 122 114 103 101 105 98 91 89 87 79 67 60 58 61 63 76 69 59 59 52 38 33 14 357 98 125 132 120 98 93 97 89 74 79 78 63 51
175 169 169 180 181 181 185 189 191 190 189 187 186 189 192 190 189 191 190 186 187 193 201 203 194 193 193 195 187 179 181 190 175 166 165 168 171 171 172 174 187 191 204 225 191 201 163 117 116 115 111 108 114 103 93 88 86 80 67 61 63 69 74 84 81 67 62 53 47 26 10 14 49 114 119 119 120 111 102 80 87 84 66 63 47
172 172 178 177 181 185 186 188 188 190 190 189 189 190 194 192 192 193 191 186 185 188 194 200 196 192 189 191 179 179 179 188 171 171 169 172 170 163 168 185 198 207 232 164 195 179 156 119 118 117 116 122 112 102 93 90 90 79 63 58 56 61 69 86 89 80 72 64 44 24 13 41 81 116 128 126 122 116 110 98 87 80 78 58 56
177 192 181 176 185 183 187 188 189 189 190 187 188 194 194 195 191 194 193 188 188 187 186 192 189 186 182 182 179 180 176 178 171 173 172 169 164 158 169 183 188 189 169 173 171 153 114 121 121 122 126 131 121 102 92 89 90 77 66 60 59 65 74 81 84 84 81 67 49 36 357 99 106 114 133 127 127 120 109 110 108 105 89 63 73
192 197 185 191 180 182 186 190 190 191 190 189 190 190 196 196 193 193 196 193 189 189 187 186 184 181 178 177 179 181 176 181 174 175 171 165 164 164 171 169 176 173 175 179 178 135 128 125 132 136 138 145 134 105 96 98 89 74 64 60 69 75 77 85 88 77 73 69 54 21 5 117 137 129 121 123 118 118 129 131 117 92 94 105 106
200 214 200 190 189 184 187 188 194 193 193 191 192 192 194 195 195 194 196 195 191 189 187 183 181 180 177 179 175 178 174 179 177 172 170 161 164 168 171 173 170 172 178 174 170 161 132 143 143 151 152 150 111 99 98 113 94 72 57 60 68 74 93 94 90 85 70 52 36 3 26 82 130 133 128 131 135 134 120 115 125 134 130 119 100
206 221 227 207 188 197 190 190 191 197 194 193 195 195 193 192 193 194 196 197 193 187 186 182 180 180 179 177 172 174 171 178 176 168 166 165 167 168 170 172 170 168 163 159 167 172 163 150 155 158 159 126 104 74 23 36 78 62 56 55 58 77 88 96 96 93 80 46 27 5 68 130 140 137 138 134 133 135 135 128 133 136 130 127 102
245 224 224 207 204 192 193 194 195 194 194 196 198 197 194 193 195 193 195 194 190 186 185 183 180 179 180 175 173 169 171 171 174 170 169 170 169 174 172 167 156 152 156 160 167 174 176 163 165 163 148 119 100 105 80 351 64 60 56 56 65 83 96 92 90 88 87 40 10 15 63 144 148 145 144 137 136 138 148 149 141 138 128 125 125
226 212 209 202 202 201 198 197 194 191 192 197 197 198 198 193 198 193 189 188 187 187 185 183 181 181 179 174 175 171 171 168 175 172 166 167 177 181 176 165 155 152 157 155 159 162 156 167 169 146 105 92 112 106 42 196 75 56 59 58 77 105 112 120 117 112 91 29 3 16 33 126 155 159 159 153 149 155 156 149 153 138 124 136 159
216 226 232 214 203 202 198 202 194 192 194 198 199 200 197 195 199 195 189 185 185 185 184 181 179 178 179 174 175 172 169 167 162 161 167 165 164 178 173 157 150 153 145 146 143 146 138 140 122 103 122 131 131 217 232 145 47 42 18 13 74 98 108 118 127 127 132 81 349 22 10 21 167 185 173 171 156 167 177 157 163 146 138 163 162
214 210 221 217 209 201 198 196 190 196 197 200 202 199 194 201 198 195 189 188 184 183 180 179 177 177 174 175 167 171 168 162 161 164 163 164 166 172 172 157 154 161 143 140 137 134 134 125 128 133 138 148 172 227 253 183 148 355 332 325 323 107 110 125 132 137 168 145 7 36 7 351 349 301 206 180 169 182 182 188 170 160 163 161 180
207 224 221 220 217 208 201 186 194 196 202 202 200 198 204 205 204 196 194 193 185 181 186 181 179 171 173 172 169 174 170 165 165 166 167 165 171 171 170 167 165 162 160 143 147 147 143 142 144 153 147 161 212 282 277 293 179 172 277 287 272 168 128 135 142 142 175 213 346 44 4 345 330 303 245 192 184 199 181 188 173 159 170 181 176
196 230 226 217 209 214 198 184 198 196 200 196 194 198 202 203 202 199 203 195 187 189 187 187 170 172 175 174 175 169 168 169 173 171 172 165 178 175 169 170 164 167 163 155 150 150 147 146 150 153 156 170 203 253 240 235 215 171 183 235 227 203 182 161 164 162 182 217 287 359 21 340 316 315 278 201 196 201 199 191 177 180 183 170 178
231 228 220 209 220 209 188 198 195 200 201 192 197 198 194 199 196 195 202 193 196 194 191 179 177 176 176 174 173 172 173 173 175 178 157 180 173 174 172 178 170 166 157 169 159 159 158 158 161 164 169 176 194 237 213 215 202 179 175 196 199 210 197 173 172 183 205 218 245 271 297 312 306 300 296 251 205 210 194 201 212 193 184 191 164
276 315 308 262 251 187 194 202 198 194 190 184 202 194 193 195 199 197 196 188 199 192 182 183 184 174 182 183 183 175 177 177 176 167 171 180 176 178 179 178 177 170 169 171 177 162 165 162 163 165 171 181 186 220 181 188 193 181 186 178 192 200 199 182 181 192 209 241 254 286 309 330 324 315 303 310 243 215 210 201 208 204 203 188 175
286 282 243 258 299 252 215 207 204 189 168 190 195 198 184 198 199 194 190 193 187 180 180 178 178 186 188 188 187 185 175 175 173 171 179 176 178 179 188 174 179 182 176 175 168 171 165 172 172 172 177 180 203 200 189 175 188 192 194 175 198 197 213 213 188 187 196 236 254 280 335 8 358 357 360 342 343 245 224 221 210 202 195 206 200
354 320 261 200 194 214 232 220 204 186 176 192 189 193 192 192 185 185 193 187 172 180 181 178 182 185 182 186 189 192 181 180 173 174 176 176 181 184 183 180 190 180 180 170 170 166 167 171 168 170 173 175 197 199 210 175 190 202 186 197 194 197 216 207 196 194 204 214 233 261 341 10 18 18 9 7 17 24 27 338 244 215 211 212 208
339 329 318 294 224 207 204 215 188 178 192 195 192 193 179 179 174 186 185 174 177 176 183 185 185 184 180 184 190 190 188 180 182 175 176 178 180 182 185 194 186 180 178 168 161 154 145 147 166 151 159 168 182 208 205 199 187 207 193 207 180 210 217 199 205 192 197 202 209 203 177 83 44 31 25 17 13 20 30 28 344 200 209 216 226
341 353 15 14 332 330 213 165 173 184 198 193 170 176 181 177 165 163 168 171 179 180 190 189 184 182 181 187 187 188 187 186 174 180 177 176 181 187 185 190 187 179 168 157 164 163 160 162 176 161 184 181 197 201 186 205 222 205 201 199 182 204 197 207 205 200 196 199 202 193 185 162 129 106 36 28 23 21 47 46 41 50 40 337 279
9 14 21 14 30 18 16 68 108 174 164 177 172 175 145 144 155 155 162 172 177 183 188 186 185 189 183 189 186 185 187 182 181 174 181 178 178 187 191 191 176 170 171 175 163 169 165 179 165 181 188 204 203 200 196 201 196 205 208 190 195 204 197 207 208 211 202 205 186 201 197 184 172 151 134 113 43 27 32 52 52 43 30 6 324
16 7 16 21 32 27 27 52 40 55 46 40 48 99 121 124 134 149 151 160 163 179 181 188 190 186 185 187 187 183 182 181 179 175 176 182 183 187 194 174 174 165 170 166 159 171 176 175 191 173 179 220 205 226 213 205 206 211 213 199 206 192 198 208 208 212 211 180 195 201 206 200 185 176 173 161 161 116 100 69 67 50 34 14 356
16 19 19 24 30 23 29 34 30 39 57 52 56 57 61 73 79 100 121 133 154 173 173 160 160 175 182 185 184 180 181 177 177 177 174 181 184 187 183 179 165 167 167 171 178 175 169 177 188 204 191 192 204 222 231 228 217 222 215 212 215 199 204 208 214 215 199 197 206 206 205 208 200 192 183 182 177 177 158 157 147 128 32 10 356
21 22 24 30 29 26 30 31 30 36 46 51 52 58 52 55 50 49 57 60 59 75 92 94 109 141 160 178 176 173 174 174 173 175 178 181 182 179 169 168 164 163 167 170 189 167 172 171 190 202 196 175 198 205 219 225 247 242 240 234 240 231 231 227 231 229 206 225 223 213 210 209 201 203 192 192 194 193 192 193 188 179 196 260 229
22 21 26 26 28 23 26 28 27 22 32 43 45 53 57 64 64 54 54 45 37 40 46 67 79 93 111 133 138 143 151 154 163 165 168 171 173 172 169 171 165 162 161 170 164 164 172 186 189 198 201 200 191 201 194 180 221 265 262 262 279 253 271 265 251 240 226 223 222 225 232 224 205 198 196 197 204 204 211 234 232 244 259 260 265
26 24 28 28 25 22 21 28 21 14 25 35 38 43 50 46 43 31 41 27 33 43 40 44 29 46 40 87 127 136 147 145 145 150 151 163 167 176 176 163 166 160 162 166 176 176 189 190 205 186 194 208 115 160 131 137 79 318 295 302 286 277 268 240 235 231 231 230 233 226 217 225 207 200 200 199 192 202 205 216 231 238 256 265 270
29 25 30 28 28 25 28 25 11 20 27 27 30 32 29 23 44 50 54 22 28 39 43 30 41 31 29 22 24 32 46 77 113 149 167 166 178 157 153 163 163 174 178 190 189 194 194 190 183 175 178 189 226 148 164 135 136 265 346 315 301 289 276 281 257 245 234 227 221 216 220 207 217 203 205 192 192 198 206 211 222 238 251 260 275
22 26 28 25 26 26 30 23 19 23 26 19 24 43 27 54 87 53 72 32 25 29 30 23 25 37 34 32 35 42 47 43 32 29 41 69 114 141 176 182 172 192 204 204 191 192 174 173 151 175 202 186 211 179 175 129 200 209 232 299 308 290 272 282 265 253 238 239 228 224 220 217 220 216 210 194 201 198 202 205 206 215 225 230 236
33 30 24 29 25 24 21 24 24 25 21 20 24 25 13 26 53 41 62 81 61 62 66 40 43 50 40 33 30 27 29 41 40 42 51 40 44 52 326 12 236 202 175 187 179 194 193 188 180 187 199 236 218 177 175 191 187 134 118 28 285 298 303 263 255 248 239 235 231 229 222 222 223 213 206 205 213 212 213 205 207 210 218 221 225
34 31 26 27 29 26 22 22 23 24 24 18 23 18 36 50 50 54 40 64 52 7 34 33 24 34 33 26 34 26 29 30 27 32 28 32 37 40 53 54 341 348 265 231 204 215 191 193 198 214 169 195 217 228 195 203 152 136 254 210 227 162 300 263 241 246 201 219 218 229 222 225 225 225 211 214 215 213 218 205 212 213 219 219 223
34 32 29 29 32 29 27 29 28 23 23 21 22 24 31 30 22 33 36 29 22 21 19 5 3 3 18 21 2 30 39 38 28 25 29 24 28 29 34 55 108 271 275 267 243 233 220 216 205 199 193 201 223 220 221 204 215 219 163 99 310 266 231 253 349 278 221 214 232 228 225 226 221 216 214 230 221 219 212 213 216 215 219 217 221
32 26 27 33 34 32 30 30 31 28 22 21 22 34 42 46 42 41 34 32 34 22 14 351 344 357 341 314 357 22 26 29 34 33 35 30 22 29 31 24 9 356 242 257 284 289 254 240 218 210 217 227 221 204 234 234 222 229 224 214 146 178 243 274 65 280 320 239 265 233 230 232 227 222 229 232 224 224 213 221 214 219 215 219 220
26 20 30 34 36 36 35 37 36 31 24 25 26 34 41 42 53 60 61 54 50 22 1 8 12 359 11 12 356 360 9 12 10 24 21 26 26 27 36 33 14 357 334 317 289 261 250 235 231 221 229 226 215 230 220 229 231 254 248 247 239 180 151 36 256 331 317 319 256 244 250 240 236 238 237 236 235 229 229 221 220 218 217 218 220
25 29 34 33 36 35 38 38 39 37 31 28 34 33 44 41 44 48 49 46 48 34 18 12 17 15 24 14 14 10 10 13 10 5 7 7 8 10 26 30 18 2 360 306 290 296 300 292 247 244 252 251 227 234 238 218 212 234 217 242 251 230 174 160 164 224 249 290 303 316 261 249 244 241 237 240 231 225 227 222 224 220 221 222 219
34 35 33 31 34 37 43 45 43 38 32 34 38 37 43 46 49 44 46 36 37 35 31 37 31 17 27 12 15 12 16 20 22 19 16 9 2 355 356 2 7 4 8 329 317 323 310 302 294 268 243 242 226 235 243 240 222 238 232 247 242 250 249 234 194 157 238 280 273 247 272 309 239 249 245 235 238 230 225 221 217 218 218 223 216
32 34 37 37 37 39 42 46 40 37 32 36 39 41 40 43 48 45 48 34 26 25 37 36 33 27 29 16 10 14 8 15 13 20 18 11 7 1 355 354 355 359 10 335 327 329 317 306 286 274 269 261 251 239 239 251 243 245 232 241 231 250 264 276 251 244 253 208 257 267 234 244 258 248 234 233 232 229 225 224 222 222 224 224 218
35 38 37 35 35 39 41 48 39 38 35 37 39 41 42 42 47 46 47 43 34 36 35 32 27 32 29 15 12 3 12 13 11 13 16 10 8 11 8 356 349 352 349 359 342 326 314 313 305 307 290 269 265 258 254 256 259 256 245 234 240 220 233 229 238 229 232 252 270 264 262 228 236 267 259 241 236 226 221 217 221 224 223 223 220